Location: Spaichingen
(48.0400°N, 8.4300°E)
Time: 02:00:11
(UTC+02:00)

Envisat - Visible Passes

Search period start: 21 October 2019 00:00
Search period end: 30 October 2019 23:00
Orbit: 764 x 766 km, 98.1° (Epoch: 20 October)

Date Brightness Start Highest point End Pass type
(mag) Time Alt. Az. Time Alt. Az. Time Alt. Az.
21 Oct 3.1 18:55:17 10° SE 19:00:13 54° ENE 19:05:10 10° N visible
21 Oct 5.4 20:35:37 10° SW 20:39:34 23° W 20:43:32 10° NW visible
22 Oct 6.3 07:02:03 10° NE 07:04:45 14° E 07:07:24 10° ESE visible
22 Oct 4.1 19:57:39 10° S 20:02:31 46° W 20:07:24 10° NNW visible
23 Oct 3.0 19:20:35 10° SSE 19:25:40 87° ENE 19:30:47 10° NNW visible
23 Oct 6.1 21:02:55 10° WSW 21:05:24 13° W 21:07:52 10° WNW visible
24 Oct 5.9 07:26:30 10° NE 07:30:34 24° E 07:34:35 10° SE visible
24 Oct 3.3 18:44:13 10° SE 18:49:01 44° ENE 18:53:49 10° N visible
24 Oct 5.1 20:23:52 10° SSW 20:28:12 28° W 20:32:32 10° NW visible
25 Oct 6.6 06:51:49 10° ENE 06:53:18 11° E 06:54:48 10° ESE visible
25 Oct 3.7 19:46:13 10° S 19:51:12 57° W 19:56:14 10° NNW visible
26 Oct 2.9 19:09:22 10° SSE 19:14:24 72° ENE 19:19:29 10° N visible
26 Oct 5.8 20:50:44 10° SW 20:53:58 17° W 20:57:14 10° NW visible
27 Oct 6.0 06:15:34 10° NE 06:19:11 19° E 06:22:45 10° SE visible
27 Oct 4.7 19:12:15 10° SSW 19:16:50 34° W 19:21:28 10° NNW visible
28 Oct 3.3 18:34:51 10° S 18:39:55 70° WSW 18:45:00 10° NNW visible
29 Oct 3.0 17:58:12 10° SSE 18:03:10 58° ENE 18:08:10 10° N visible
29 Oct 5.5 19:38:48 10° SW 19:42:35 21° W 19:46:23 10° NW visible
30 Oct 6.1 06:04:46 10° NE 06:07:46 15° E 06:10:44 10° SE visible
30 Oct 4.3 19:00:42 10° SSW 19:05:30 42° W 19:10:20 10° NNW visible
